Weather History for Hurghada, Egypt

Change the Weather History Date:

Sunday, March 24, 2013

  Actual Average Record
Temperature  
Mean Temperature 70 °F -  
Max Temperature 82 °F 80 °F 95 °F (2008)
Min Temperature 59 °F 63 °F 53 °F (2003)
Cooling Degree Days 6    
Growing Degree Days 20 (Base 50)    
Moisture  
Dew Point 47 °F    
Average Humidity 44    
Maximum Humidity 68    
Minimum Humidity 13    
Precipitation  
Precipitation 0.00 in - - ()
Sea Level Pressure  
Sea Level Pressure 29.96 in    
Wind  
Wind Speed 15 mph ()    
Max Wind Speed 31 mph    
Max Gust Speed -    
Visibility 6.0 miles    
Events      
Averages and records for this station are not official NWS values.
T = Trace of Precipitation, MM = Missing Value Source: Averaged Metar Reports

Daily Weather History Graph

Daily Weather History Graph

Search for Another Location

Airport:

Trip Planner

Search our weather history database for the weather conditions in past years. The results will help you decide how hot, cold, wet, or windy it might be!

Date:

Astronomy

Mar. 24, 2013 Rise Set
Actual Time 5:44 AM EET 5:58 PM EET
Civil Twilight 5:21 AM EET 6:21 PM EET
Nautical Twilight 4:53 AM EET 6:48 PM EET
Astronomical Twilight 4:26 AM EET 7:15 PM EET
Moon 3:17 PM EET (3/24) 3:28 AM EET (3/24)
Length of Visible Light 13h 00m
Length of Day
12h 13m
Waxing Gibbous, 90% of the Moon is Illuminated
Mar 24
Waxing Gibbous
Mar 27
Full
Apr 3
Last Quarter
Apr 10
New
Apr 18
First Quarter

Hourly Weather History & Observations

Time (EET) Temp. Dew Point Humidity Pressure Visibility Wind Dir Wind Speed Gust Speed Precip Events Conditions
12:00 AM 66.2 °F 39.2 °F 37% 29.92 in - NW 12.7 mph - N/A   Clear
1:00 AM 64.4 °F 39.2 °F 40% 29.95 in - NW 11.5 mph - N/A   Clear
2:00 AM 63 °F 46 °F 42% 29.95 in 6 mi NW 31.3 mph - -  
2:00 AM 62.6 °F 46.4 °F 55% 29.95 in - NW 16.1 mph - N/A   Clear
3:00 AM 62.6 °F 50.0 °F 63% 29.92 in - NW 13.8 mph - N/A   Clear
4:00 AM 60.8 °F 50.0 °F 68% 29.92 in - WNW 17.3 mph - N/A   Clear
5:00 AM 60.8 °F 50.0 °F 68% 29.92 in - WNW 20.7 mph - N/A   Clear
6:00 AM 60.8 °F 50.0 °F 68% 29.95 in - WNW 17.3 mph - N/A   Clear
7:00 AM 62.6 °F 51.8 °F 68% 29.98 in - WNW 20.7 mph - N/A   Clear
8:00 AM 67 °F 52 °F 48% 30.00 in 6 mi WNW 20.7 mph - -  
8:00 AM 66.2 °F 51.8 °F 60% 29.98 in - WNW 20.7 mph - N/A   Clear
9:00 AM 71.6 °F 50.0 °F 46% 30.01 in - NNW 16.1 mph - N/A   Clear
10:00 AM 75.2 °F 51.8 °F 44% 30.01 in - North 16.1 mph - N/A   Clear
11:00 AM 77.0 °F 51.8 °F 41% 29.98 in - North 19.6 mph - N/A   Clear
12:00 PM 78.8 °F 48.2 °F 34% 29.95 in - North 20.7 mph - N/A   Clear
1:00 PM 80.6 °F 46.4 °F 30% 29.95 in - North 19.6 mph - N/A   Clear
2:00 PM 80 °F 39 °F 13% 29.94 in 6 mi North 17.3 mph - -  
2:00 PM 80.6 °F 39.2 °F 23% 29.92 in - North 17.3 mph - N/A   Clear
3:00 PM 82.4 °F 35.6 °F 19% 29.92 in - North 15.0 mph - N/A   Clear
4:00 PM 80.6 °F 37.4 °F 21% 29.92 in - North 16.1 mph - N/A   Clear
5:00 PM 78.8 °F 42.8 °F 28% 29.92 in - NNE 12.7 mph - N/A   Clear
6:00 PM 73.4 °F 53.6 °F 50% 29.92 in - North 15.0 mph - N/A   Clear
7:00 PM 69.8 °F 55.4 °F 60% 29.95 in - North 12.7 mph - N/A   Clear
8:00 PM 69 °F 52 °F 44% 30.00 in 6 mi NNW 13.8 mph - -  
8:00 PM 69.8 °F 51.8 °F 53% 29.98 in - NNW 13.8 mph - N/A   Clear
9:00 PM 68.0 °F 44.6 °F 43% 30.01 in - NNW 11.5 mph - N/A   Clear
10:00 PM 66.2 °F 39.2 °F 37% 30.01 in - NNW 11.5 mph - N/A   Clear
11:00 PM 66.2 °F 37.4 °F 35% 30.01 in - NNW 11.5 mph - N/A   Clear